Location: Unspecified
(0.0000°N, 0.0000°E)
Time: 09:19:53
(UTC+00:00)

A-11 Canister half - Pass Details

Date: 21 June 2024
Orbit: 1515 x 1684 km, 47.2° (Epoch: 23 July)

Event Time Altitude Azimuth Distance (km) Brightness Sun altitude
Exits shadow 04:29:27 30° 230° (SW) 2,452 9.5 -21.1°
Maximum altitude 04:29:33 30° 229° (SW) 2,452 9.5 -21.1°
Drops below altitude 10° 04:37:19 10° 171° (S) 3,681 10.8 -19.3°
Sets 04:40:55 0° 160° (SSE) 4,676 11.5 -18.5°
